This demonstration page uses our WeatherBlox Daily Observations layout. Learn more.

Left ArrowRight Arrow

Hourly Observations for May 22, 2022

Temp ( °F °C ) Dew Point ( °F °C ) Humidity (%) Winds ( mph kmh ) Pressure ( in mb ) Visibility ( mi km ) Precip ( " mm )
12:53 am 00:53 Clear 68 20 35 1.7 30 30 NNW 7 11 29.95 1014 10 16 0.00 0.00
1:53 am 01:53 Clear 63 17.2 37 2.8 38 38 NNW 7 11 29.95 1014 10 16 0.00 0.00
2:53 am 02:53 Clear 66 18.9 35 1.7 32 32 NNW 8 13 29.96 1015 10 16 0.00 0.00
3:53 am 03:53 Clear 67 19.4 33 0.6 28 28 NNW 9 15 29.96 1014 10 16 0.00 0.00
4:53 am 04:53 Clear 67 19.4 32 0 27 27 NNW 9 15 29.96 1015 10 16 0.00 0.00
5:53 am 05:53 Sunny 66 18.9 31 -0.6 27 27 NW 8 13 29.97 1015 10 16 0.00 0.00
6:53 am 06:53 Sunny 66 18.9 31 -0.6 27 27 NW 5 7 29.99 1016 10 16 0.00 0.00
7:53 am 07:53 Sunny 70 21.1 31 -0.6 23 23 N 14 22 30.00 1016 10 16 0.00 0.00
8:53 am 08:53 Sunny 73 22.8 30 -1.1 20 20 N 16 26 30.01 1016 10 16 0.00 0.00
9:53 am 09:53 Sunny 76 24.4 30 -1.1 18 18 NNW 13 20 30.00 1016 10 16 0.00 0.00
10:53 am 10:53 Sunny 79 26.1 29 -1.7 16 16 N 12 19 29.99 1016 10 16 0.00 0.00
11:53 am 11:53 Sunny 82 27.8 25 -3.9 12 12 N 14 22 29.99 1016 10 16 0.00 0.00
12:53 pm 12:53 Sunny 85 29.4 21 -6.1 9 9 NNE 16 26 29.97 1015 10 16 0.00 0.00
1:53 pm 13:53 Sunny 86 30 23 -5 10 10 NNW 13 20 29.95 1014 10 16 0.00 0.00
2:53 pm 14:53 Sunny 88 31.1 25 -3.9 10 10 N 6 9 29.93 1014 10 16 0.00 0.00
3:53 pm 15:53 Sunny 89 31.7 26 -3.3 10 10 N 8 13 29.92 1013 10 16 0.00 0.00
4:53 pm 16:53 Sunny 88 31.1 25 -3.9 10 10 NNE 13 20 29.90 1013 10 16 0.00 0.00
5:53 pm 17:53 Sunny 89 31.7 22 -5.6 8 8 NNE 9 15 29.89 1012 10 16 0.00 0.00
6:53 pm 18:53 Sunny 89 31.7 24 -4.4 9 9 NNE 12 19 29.89 1012 10 16 0.00 0.00
7:53 pm 19:53 Sunny 86 30 27 -2.8 12 12 N 3 6 29.89 1012 10 16 0.00 0.00
8:53 pm 20:53 Clear 82 27.8 35 1.7 18 18 NNW 8 13 29.91 1013 10 16 0.00 0.00
9:53 pm 21:53 Clear 80 26.7 35 1.7 20 20 NNW 9 15 29.93 1014 10 16 0.00 0.00
10:53 pm 22:53 Clear 76 24.4 36 2.2 23 23 NW 5 7 29.96 1014 10 16 0.00 0.00
11:53 pm 23:53 Clear 74 23.3 36 2.2 25 25 NW 6 9 29.96 1014 10 16 0.00 0.00

Powered by AerisWeather